Probability
0 0 0 0 0 0 0 0 0 0 0 0 0 0 0 0 0 0 0 0 0 0 0 3 3 3 0 0 0 0 0 0 0 0 0 0 0 0 0 0 0 0 0 0
0 0 0 0 0 0 0 0 0 0 0 0 0 0 0 0 0 0 0 0 0 0 3 3 3 3 0 0 0 0 0 0 0 0 0 0 0 0 0 0 0 0 0 0
0 0 0 0 0 0 0 0 0 0 0 0 0 0 0 0 0 0 0 0 0 0 3 3 3 3 0 0 0 0 0 0 0 0 0 0 0 0 0 0 0 0 0 0
0 0 0 0 0 0 0 0 0 0 0 0 0 0 0 0 0 0 0 0 0 0 0 0 0 3 0 0 0 0 0 0 0 0 0 0 0 0 0 0 0 0 0 0
0 0 0 0 0 0 0 0 0 0 0 0 0 0 0 0 0 0 0 0 0 0 0 0 0 0 0 0 0 0 0 0 0 0 0 0 3 0 0 0 0 0 0 0
0 0 0 0 0 0 0 0 0 0 0 0 0 0 0 0 0 0 0 0 0 0 0 0 0 0 0 3 3 3 3 3 3 3 3 0 0 0 0 0 0 0 0 0
0 0 0 0 0 0 0 0 0 0 0 0 0 0 0 0 0 0 0 0 0 0 0 0 0 0 0 0 0 0 0 0 0 0 0 0 0 0 0 0 0 0 0 0
0 0 0 0 0 0 0 0 0 0 0 0 0 0 0 0 0 0 0 0 0 0 0 0 0 0 0 0 0 0 0 0 0 0 0 0 0 0 0 0 0 0 0 0
0 0 0 0 0 0 0 0 0 0 0 0 0 0 0 0 0 0 0 0 0 0 0 0 0 0 0 0 0 0 0 0 0 0 0 0 0 0 0 0 0 0 0 0
0 0 0 0 0 0 0 0 0 0 0 0 0 0 0 0 0 0 0 0 0 0 0 0 0 0 0 0 0 0 0 0 0 0 0 0 0 0 0 0 0 0 0 0
0 0 0 0 0 0 0 0 0 0 0 0 0 0 0 0 0 0 0 0 0 0 0 0 0 0 0 0 0 0 0 0 0 0 0 0 0 0 0 0 0 0 0 0
0 0 0 0 0 0 0 0 0 0 0 0 0 0 0 0 0 0 0 0 0 0 0 0 0 0 0 0 0 0 0 0 0 0 0 0 0 0 0 0 0 0 0 0
0 0 0 0 0 0 0 0 0 0 0 0 0 0 0 0 0 0 0 0 0 0 0 0 0 0 0 0 0 0 0 0 0 0 0 0 0 0 0 0 0 0 0 0
0 0 0 0 0 0 0 0 0 0 0 0 0 0 0 0 0 0 0 0 0 0 0 0 0 0 0 0 0 0 0 0 0 0 0 0 0 0 0 0 0 0 0 0
0 0 0 0 0 0 0 0 0 0 0 0 0 0 0 0 0 0 0 0 0 0 0 0 0 0 0 0 0 0 0 0 0 0 0 0 0 0 0 3 0 0 0 0
0 0 0 0 0 0 0 0 0 0 0 0 0 0 0 0 0 0 0 0 0 0 0 0 0 0 0 0 0 0 0 0 0 0 0 0 0 0 0 0 3 3 3 0
0 0 0 0 0 0 0 0 0 0 0 0 0 0 0 0 0 0 0 0 0 0 0 0 0 0 0 0 0 0 0 0 0 0 0 0 0 0 0 0 0 3 3 3
0 0 0 0 0 0 0 0 0 0 0 0 0 0 0 0 0 0 0 0 0 0 0 0 0 0 0 0 0 0 0 0 0 0 0 0 0 0 0 0 0 3 3 3
0 0 0 0 0 0 0 0 0 0 0 0 0 0 0 0 0 0 0 0 0 0 0 0 0 0 0 0 0 0 0 0 0 0 0 0 0 0 0 0 0 0 3 3
0 0 0 0 0 0 0 0 0 0 0 0 0 0 0 0 0 0 0 0 0 0 0 0 0 0 0 0 0 0 0 0 0 0 0 0 0 0 0 0 0 0 3 3
0 0 0 0 0 0 0 0 0 0 0 0 0 0 0 0 0 0 0 0 0 0 0 0 0 0 0 0 0 0 0 0 0 0 0 0 0 0 0 0 0 0 0 0
0 0 0 0 0 0 0 0 0 0 0 0 0 0 0 0 0 0 0 0 0 0 0 0 0 0 0 0 0 0 0 0 0 0 0 0 0 0 0 0 0 0 0 0
0 0 0 0 0 0 0 0 0 0 0 0 0 0 0 0 0 0 0 0 0 0 0 0 0 0 0 0 0 0 0 0 0 0 0 0 0 0 0 0 0 0 0 0
0 0 0 0 0 0 0 0 0 0 0 0 0 0 0 0 0 0 0 0 0 0 0 0 0 0 0 0 0 0 0 0 0 0 0 0 0 0 0 0 0 0 0 0
0 0 0 0 0 0 0 0 0 0 0 0 0 0 0 0 0 0 0 0 0 0 0 0 0 0 0 0 0 0 0 0 0 0 0 0 0 0 0 0 0 0 0 0
0 0 0 0 0 0 0 0 0 0 0 0 0 0 0 0 0 0 0 0 0 0 0 0 0 0 0 0 0 0 0 0 0 0 0 0 0 0 0 0 0 0 0 0
Height
5873 5874 5873 5874 5873 5873 5873 5873 5873 5873 5872 5872 5871 5871 5870 5869 5868 5867 5866 5865 5865 5864 5863 5862 5861 5860 5859 5859 5858 5858 5858 5857 5857 5856 5856 5855 5855 5854 5854 5853 5853 5853 5853 5853
5872 5872 5872 5871 5871 5871 5871 5871 5871 5870 5870 5869 5869 5869 5868 5867 5866 5865 5864 5863 5862 5861 5860 5859 5858 5857 5856 5855 5855 5854 5854 5854 5853 5852 5852 5852 5851 5850 5850 5850 5850 5850 5850 5849
5869 5870 5869 5869 5868 5869 5869 5869 5869 5868 5867 5867 5867 5866 5866 5865 5864 5863 5861 5860 5859 5858 5857 5856 5855 5853 5852 5852 5851 5851 5850 5850 5849 5849 5848 5848 5848 5847 5847 5847 5847 5847 5846 5846
5867 5867 5866 5866 5866 5866 5867 5867 5866 5866 5865 5865 5865 5864 5863 5862 5861 5860 5859 5857 5856 5854 5853 5852 5851 5849 5848 5848 5847 5847 5846 5846 5845 5845 5845 5844 5844 5844 5844 5843 5843 5843 5843 5843
5864 5864 5864 5864 5864 5864 5864 5864 5864 5863 5863 5862 5861 5861 5861 5859 5858 5857 5856 5854 5853 5851 5850 5849 5847 5846 5845 5844 5843 5842 5842 5841 5841 5841 5841 5840 5840 5840 5840 5839 5839 5839 5839 5839
5861 5861 5861 5862 5862 5862 5862 5862 5862 5861 5860 5860 5859 5859 5858 5857 5855 5854 5853 5851 5850 5848 5847 5845 5844 5842 5841 5840 5839 5838 5838 5837 5837 5837 5837 5836 5836 5836 5835 5835 5835 5835 5835 5835
5858 5858 5858 5859 5859 5859 5859 5860 5859 5858 5857 5857 5856 5855 5855 5854 5852 5851 5850 5848 5847 5845 5844 5842 5840 5838 5837 5836 5835 5834 5834 5833 5833 5833 5832 5832 5832 5831 5831 5831 5831 5831 5831 5831
5855 5856 5856 5856 5856 5856 5856 5857 5857 5856 5855 5854 5853 5852 5852 5850 5849 5847 5846 5844 5843 5841 5840 5838 5836 5834 5833 5831 5831 5830 5830 5829 5829 5828 5828 5828 5827 5827 5827 5827 5827 5827 5827 5827
5852 5853 5853 5853 5853 5854 5853 5853 5853 5853 5851 5851 5850 5849 5848 5847 5846 5844 5842 5840 5839 5837 5835 5833 5831 5829 5827 5826 5825 5825 5825 5825 5824 5824 5824 5823 5823 5823 5822 5822 5822 5822 5822 5822
5849 5850 5850 5850 5850 5850 5851 5850 5850 5849 5848 5847 5846 5845 5844 5843 5841 5840 5838 5836 5834 5832 5830 5828 5826 5824 5822 5821 5820 5820 5819 5819 5819 5819 5819 5819 5818 5818 5818 5817 5817 5817 5817 5817
5845 5846 5847 5847 5847 5847 5847 5846 5845 5845 5844 5843 5842 5844 5841 5839 5837 5835 5833 5831 5829 5828 5825 5823 5820 5819 5817 5816 5815 5814 5814 5814 5814 5814 5814 5813 5813 5813 5812 5812 5812 5812 5812 5812
5841 5842 5842 5843 5843 5843 5843 5842 5842 5842 5840 5839 5838 5840 5836 5834 5832 5831 5829 5826 5825 5823 5820 5818 5816 5814 5812 5811 5810 5809 5809 5809 5809 5809 5808 5808 5808 5807 5807 5807 5807 5807 5807 5807
5837 5838 5838 5839 5840 5839 5838 5837 5837 5836 5835 5834 5833 5835 5831 5829 5827 5826 5824 5821 5819 5818 5815 5813 5811 5809 5807 5805 5805 5804 5804 5804 5803 5803 5803 5802 5802 5802 5802 5802 5801 5801 5801 5801
5832 5833 5834 5835 5834 5833 5833 5833 5832 5831 5830 5829 5829 5828 5827 5825 5823 5821 5818 5816 5814 5812 5810 5808 5806 5804 5802 5801 5800 5799 5799 5798 5798 5797 5797 5797 5796 5796 5796 5796 5796 5796 5796 5796
5827 5827 5828 5828 5829 5828 5828 5828 5827 5826 5825 5824 5824 5822 5822 5820 5818 5816 5813 5811 5809 5807 5805 5803 5801 5799 5797 5795 5795 5794 5793 5792 5792 5791 5791 5791 5791 5791 5791 5791 5791 5791 5791 5791
5821 5821 5822 5823 5822 5822 5822 5822 5821 5821 5820 5819 5818 5817 5816 5814 5812 5810 5808 5806 5804 5802 5800 5797 5795 5793 5791 5790 5789 5788 5787 5786 5786 5785 5785 5785 5785 5785 5785 5785 5785 5785 5785 5785
5815 5816 5816 5817 5816 5816 5817 5817 5816 5815 5814 5814 5812 5812 5810 5808 5807 5805 5803 5801 5799 5796 5794 5792 5790 5788 5785 5784 5782 5781 5780 5779 5779 5779 5779 5779 5779 5779 5779 5779 5779 5779 5779 5779
5809 5809 5810 5810 5811 5810 5813 5811 5810 5809 5809 5808 5806 5805 5804 5803 5801 5799 5797 5795 5793 5791 5788 5786 5784 5781 5779 5777 5776 5774 5773 5773 5773 5773 5773 5773 5773 5773 5773 5773 5773 5773 5773 5773
5803 5804 5803 5804 5804 5804 5806 5805 5804 5803 5803 5802 5800 5799 5798 5797 5795 5793 5791 5789 5787 5784 5782 5780 5777 5775 5773 5770 5769 5767 5766 5766 5766 5766 5766 5766 5766 5766 5766 5766 5766 5766 5766 5766
5797 5797 5798 5797 5797 5798 5800 5799 5797 5797 5796 5795 5794 5793 5792 5790 5789 5788 5785 5782 5780 5778 5775 5773 5770 5768 5766 5763 5762 5760 5759 5759 5758 5759 5759 5759 5760 5759 5759 5759 5759 5759 5759 5759
5790 5790 5791 5791 5790 5791 5792 5791 5791 5791 5791 5789 5787 5786 5785 5783 5782 5780 5778 5775 5773 5771 5768 5766 5763 5761 5759 5756 5754 5753 5752 5751 5751 5751 5751 5752 5752 5752 5752 5752 5752 5751 5751 5751
5783 5783 5783 5783 5783 5786 5785 5784 5784 5783 5782 5781 5780 5779 5778 5776 5774 5773 5771 5769 5766 5764 5761 5759 5756 5754 5752 5749 5747 5746 5745 5744 5744 5743 5744 5744 5744 5744 5744 5744 5744 5743 5743 5743
5776 5777 5776 5777 5779 5778 5777 5777 5776 5776 5775 5774 5773 5772 5771 5769 5767 5765 5764 5762 5759 5757 5754 5752 5749 5747 5745 5743 5741 5739 5738 5737 5736 5736 5736 5736 5736 5736 5736 5736 5735 5735 5735 5735
5768 5768 5768 5769 5770 5770 5770 5769 5769 5768 5768 5767 5765 5764 5763 5761 5760 5758 5756 5754 5752 5749 5747 5744 5742 5740 5738 5736 5734 5732 5731 5730 5729 5729 5729 5729 5729 5728 5728 5727 5727 5727 5727 5727
5760 5760 5760 5761 5762 5762 5762 5762 5761 5760 5760 5759 5758 5756 5755 5753 5751 5750 5748 5746 5744 5742 5739 5737 5734 5732 5731 5729 5727 5725 5724 5723 5722 5722 5721 5721 5721 5720 5720 5719 5719 5719 5719 5718
5752 5752 5752 5753 5754 5753 5754 5753 5753 5752 5752 5751 5750 5749 5747 5745 5743 5742 5740 5738 5736 5734 5731 5729 5727 5725 5723 5721 5720 5718 5717 5715 5715 5714 5714 5713 5713 5712 5712 5711 5711 5711 5711 5710
Wind_Speed
9 9 8 7 7 7 7 7 7 7 7 7 7 8 8 9 9 9 9 9 10 11 12 12 12 13 13 14 14 14 14 14 14 14 14 14 14 14 13 13 12 12 12 12
8 8 8 8 8 8 8 7 7 7 7 8 8 8 8 8 8 9 9 10 10 11 12 12 12 13 14 14 14 14 14 14 14 14 14 13 13 13 12 12 11 11 11 11
8 8 8 8 8 8 8 7 7 8 8 8 8 8 8 8 8 9 10 10 11 12 12 12 12 12 13 13 13 13 14 13 13 13 13 13 13 13 13 12 12 11 11 11
8 8 9 9 8 8 8 7 7 8 8 8 9 8 7 7 8 9 10 11 12 12 13 13 13 13 13 13 13 14 13 13 13 13 13 13 14 13 13 13 13 12 12 12
9 9 9 9 8 8 8 7 8 9 9 9 9 8 7 8 9 9 10 11 12 13 13 13 14 14 14 13 14 14 14 14 13 13 13 14 14 14 14 14 14 13 14 13
10 10 10 9 9 9 9 9 9 10 10 10 10 10 9 9 10 11 11 12 13 13 14 14 15 15 15 15 15 14 14 15 14 14 14 14 14 14 14 14 14 14 13 13
10 10 11 11 10 10 9 9 10 11 11 11 11 11 10 10 11 13 13 13 14 15 15 16 16 16 16 15 15 14 14 15 15 14 14 14 15 14 14 14 15 15 14 14
11 10 11 11 10 10 10 10 11 11 12 11 11 12 11 12 13 14 15 15 15 16 17 16 17 17 17 17 17 16 15 16 15 15 15 15 15 15 15 15 15 16 16 15
11 10 10 11 11 11 11 12 12 12 13 13 13 13 14 14 15 15 15 16 16 17 18 17 17 18 17 17 17 17 16 16 15 15 15 15 15 15 15 15 16 16 17 17
12 11 12 12 13 13 12 13 13 13 14 14 15 15 15 16 16 16 16 17 17 18 19 18 18 18 19 18 17 17 16 15 15 15 15 15 15 16 16 16 17 17 17 17
13 12 12 13 13 14 14 14 15 15 16 16 17 16 17 17 17 17 18 18 18 19 19 19 19 19 19 19 18 17 16 16 16 16 16 16 17 17 18 17 18 17 18 17
14 14 13 14 14 14 15 15 16 16 17 18 19 18 18 18 18 19 19 20 19 19 20 20 19 19 19 19 18 18 17 17 17 17 17 18 18 18 18 18 18 18 18 17
15 15 15 15 15 16 16 16 17 17 17 18 20 19 19 19 20 20 21 21 20 20 20 20 20 19 19 18 18 19 18 18 18 18 18 18 18 19 18 18 18 18 17 17
17 17 17 16 16 17 17 17 17 18 19 19 20 19 18 19 20 21 21 21 21 21 21 20 20 19 19 19 19 19 19 19 18 18 18 18 19 18 18 18 18 17 17 17
19 18 18 17 17 17 17 17 18 19 20 20 19 19 18 19 20 20 20 21 20 20 21 20 20 20 20 20 20 20 21 21 20 19 19 19 19 19 19 18 18 17 17 17
20 20 19 19 19 19 18 18 19 19 20 20 20 20 20 20 20 20 20 20 20 20 20 20 20 21 21 21 21 22 22 22 22 21 20 19 19 19 19 19 19 19 19 19
20 20 20 19 19 19 19 19 19 19 19 20 20 21 20 21 20 20 20 20 20 20 20 21 21 21 22 22 22 22 22 22 21 20 20 20 20 20 19 20 20 20 20 20
21 21 21 21 20 20 18 19 19 19 19 19 20 21 21 20 20 20 20 20 21 21 21 22 22 23 23 23 23 23 22 22 21 21 21 21 20 20 20 21 21 21 22 22
22 22 22 21 21 20 18 19 19 19 19 20 20 21 21 21 21 20 20 21 22 22 22 22 23 23 23 23 23 23 22 23 22 22 21 21 22 22 22 22 22 23 23 23
22 22 23 23 22 21 19 20 20 20 20 20 21 21 22 22 22 22 22 22 23 23 23 23 23 23 23 23 23 23 23 23 23 23 23 22 23 23 23 23 23 23 23 23
22 23 24 24 24 23 21 21 21 21 21 21 22 22 22 23 24 24 24 24 24 24 25 24 24 23 23 23 23 24 23 23 23 23 23 23 23 22 23 23 23 23 23 24
24 24 25 25 25 23 22 22 22 22 22 22 23 23 23 24 24 24 24 24 24 24 25 24 24 24 23 23 23 23 23 23 23 23 23 22 23 23 23 24 24 24 24 25
24 24 25 25 24 24 23 22 22 23 23 23 23 24 24 24 24 24 24 24 25 25 25 25 24 24 24 23 23 23 23 23 23 23 23 23 23 23 24 24 24 24 24 24
25 25 26 25 24 25 25 24 24 24 24 24 24 25 25 24 24 24 25 25 25 25 25 25 25 25 25 24 24 23 23 23 22 22 23 23 23 24 24 24 24 24 24 24
26 26 26 26 25 25 25 25 25 25 25 25 25 25 25 26 25 25 26 26 26 26 26 26 26 26 25 25 24 24 23 23 23 23 23 23 24 24 24 24 24 24 24 23
26 26 27 27 27 27 25 25 26 25 25 25 26 26 26 26 26 26 26 26 27 27 26 26 26 26 26 25 25 24 23 23 23 24 25 25 25 25 25 25 24 23 23 23
Wind_Direction
259 254 255 257 256 258 270 276 275 276 280 286 291 291 295 297 302 305 307 305 304 299 299 295 290 288 287 284 281 279 279 280 280 279 278 278 280 279 276 273 270 271 272 273
258 255 253 252 253 260 270 275 279 280 282 287 288 290 293 298 306 307 307 305 303 301 305 300 294 289 287 284 282 283 283 282 281 279 279 281 280 278 276 276 275 275 272 275
263 262 259 259 261 264 269 274 280 284 287 287 288 291 293 298 305 306 307 307 304 301 301 300 299 295 289 284 284 283 282 280 279 278 278 278 279 278 279 280 278 276 274 277
262 261 261 261 260 262 262 268 276 282 289 292 292 300 299 304 309 312 311 310 308 306 305 302 300 297 291 286 284 281 280 277 276 278 280 280 278 278 279 278 274 272 272 274
257 257 258 258 256 259 260 265 274 282 287 290 295 297 304 307 311 313 312 310 310 308 306 302 299 295 292 287 283 280 279 279 278 279 279 280 280 279 277 273 273 273 271 273
258 256 254 254 255 257 261 266 274 280 284 286 294 297 303 312 316 314 311 309 309 306 303 299 297 293 291 288 281 277 277 277 277 278 278 279 278 277 277 273 271 271 270 273
253 251 251 253 251 254 259 264 271 275 278 285 291 295 300 310 313 313 311 308 307 305 303 299 296 292 291 288 283 277 275 276 275 276 276 276 276 275 276 274 270 269 269 273
254 249 250 252 253 255 259 265 270 276 281 283 288 294 298 305 308 308 307 305 304 304 304 301 296 292 290 286 282 279 276 275 275 274 275 276 275 274 272 272 270 268 269 271
258 253 251 254 256 258 266 267 271 276 282 284 287 295 298 301 304 304 303 301 301 302 303 300 296 292 289 286 282 276 274 275 274 273 275 275 272 271 271 271 268 269 269 271
262 258 255 256 258 262 270 272 272 276 281 284 287 292 299 304 306 306 304 302 301 301 301 300 296 291 289 286 282 276 275 274 273 274 275 274 273 271 271 271 271 270 269 269
263 262 259 259 260 262 266 272 273 276 282 284 287 292 298 302 304 304 302 300 299 300 299 299 296 293 291 289 284 278 275 273 272 273 273 273 273 274 274 273 272 270 268 268
260 262 262 263 264 265 267 272 275 277 280 283 289 294 298 301 302 302 300 299 299 298 298 298 296 293 291 287 281 277 275 273 274 274 273 272 272 273 272 273 272 269 268 267
261 264 265 264 266 267 268 271 274 277 279 282 287 292 296 297 299 300 299 299 297 298 297 296 294 292 290 284 278 276 275 273 274 273 273 273 272 269 269 270 268 268 267 268
263 264 266 268 268 267 267 269 273 276 279 282 285 287 290 292 295 297 299 299 298 297 296 294 293 291 285 281 279 276 274 275 273 272 273 274 272 268 267 267 266 266 268 270
263 265 267 268 269 269 270 271 272 275 278 281 284 286 289 292 293 296 298 299 298 298 297 295 294 290 285 280 277 276 274 275 274 273 273 273 271 269 267 267 267 268 270 272
262 265 266 267 267 269 268 270 271 274 276 280 283 284 286 291 294 296 298 299 299 297 296 295 295 293 289 284 279 276 274 273 273 272 271 270 269 268 265 266 267 269 271 272
260 263 264 264 266 268 267 268 270 272 274 277 279 282 286 291 294 295 296 298 298 297 295 295 294 291 289 287 285 279 275 273 272 271 269 267 267 266 266 267 269 270 270 271
259 261 263 265 265 266 269 269 271 271 273 275 277 279 284 288 292 294 296 298 299 298 296 295 294 292 290 289 287 284 278 275 273 271 268 267 266 267 267 268 270 270 271 271
258 261 264 265 266 266 265 269 273 274 273 274 277 279 282 284 287 292 296 299 300 299 298 297 295 292 290 288 286 284 280 276 275 272 269 268 268 268 268 269 269 269 271 272
257 258 262 265 267 267 269 271 273 274 273 275 278 280 282 284 286 290 294 297 298 298 298 298 297 294 291 288 286 283 280 277 275 272 270 268 268 268 268 269 270 269 271 272
257 257 260 264 267 269 271 272 272 274 277 277 279 281 282 284 287 290 293 295 296 297 297 296 295 295 293 289 285 283 280 277 276 274 271 268 267 267 269 270 272 270 270 272
257 259 261 263 266 269 271 273 274 276 278 279 279 282 284 284 286 289 292 294 295 296 295 294 293 293 293 290 287 283 281 279 277 274 271 270 269 269 270 271 272 273 271 272
258 261 260 262 266 268 270 272 276 278 279 280 281 282 285 284 285 289 292 293 294 295 293 292 290 290 290 288 286 283 282 280 277 274 272 270 270 271 271 272 272 273 273 273
257 261 263 263 264 267 269 272 275 276 278 280 281 282 284 284 286 288 290 292 294 295 294 292 291 290 289 287 285 283 282 281 277 275 273 271 271 271 271 271 271 272 273 273
260 262 264 266 267 269 271 272 274 275 277 280 282 282 282 283 284 286 289 290 292 294 295 293 291 290 288 287 286 284 282 278 276 274 274 274 274 273 271 271 271 272 272 272
260 262 264 265 267 270 272 272 273 274 276 278 279 279 281 283 286 288 288 289 291 293 294 294 292 290 289 287 285 283 282 279 276 274 274 274 275 274 273 270 269 270 271 271